Location: Most
(50.5133°N, 13.6207°E)
Time: 01:44:50
(UTC+02:00)

ISS - Pass Details

Date: 19 September 2021
Orbit: 417 x 423 km, 51.6° (Epoch: 22 October)

Event Time Altitude Azimuth Distance (km) Brightness Sun altitude
Rises 21:35:02 0° 255° (WSW) 2,361 0.7 -22.6°
Reaches altitude 10° 21:37:07 10° 255° (WSW) 1,499 -0.4 -22.9°
Enters shadow 21:39:14 36° 256° (WSW) 683 -2.4 -23.2°
